Weather History for Robinson, IL

Change the Weather History Date:

Friday, December 6, 2013

  Actual Average (KLWV) Record (KLWV)
Temperature  
Mean Temperature 22 °F 38 °F  
Max Temperature 25 °F 45 °F 71 °F (1998)
Min Temperature 19 °F 30 °F 0 °F (2002)
Degree Days  
Heating Degree Days 42 27  
Month to date heating degree days 158  
Since 1 July heating degree days 1016  
Cooling Degree Days 0 0  
Month to date cooling degree days 0  
Year to date cooling degree days 1387  
Moisture  
Dew Point 21 °F    
Average Humidity 87    
Maximum Humidity 96    
Minimum Humidity 74    
Precipitation  
Precipitation 0.02 in 0.13 in 0.55 in (1975)
Month to date precipitation 0.74  
Year to date precipitation 41.23  
Sea Level Pressure  
Sea Level Pressure 30.35 in    
Wind  
Wind Speed 9 mph (NNW)    
Max Wind Speed 14 mph    
Max Gust Speed 18 mph    
Visibility 5 miles    
Events Snow    
T = Trace of Precipitation, MM = Missing Value Source: NWS Daily Summary

Daily Weather History Graph

Daily Weather History Graph

Search for Another Location

Airport:

Trip Planner

Search our weather history database for the weather conditions in past years. The results will help you decide how hot, cold, wet, or windy it might be!

Date:

Astronomy

Dec. 06, 2013 Rise Set
Actual Time 6:55 AM CST 4:28 PM CST
Civil Twilight 6:25 AM CST 4:57 PM CST
Nautical Twilight 5:52 AM CST 5:31 PM CST
Astronomical Twilight 5:20 AM CST 6:03 PM CST
Moon 10:01 AM CST (12/6) 8:58 PM CST (12/6)
Length of Visible Light 10h 32m
Length of Day
9h 32m
Waxing Crescent, 19% of the Moon is Illuminated
Dec 6
Waxing Crescent
Dec 9
First Quarter
Dec 17
Full
Dec 25
Last Quarter
Jan 1
New

Hourly Weather History & Observations

Time (CST) Temp. Windchill Dew Point Humidity Pressure Visibility Wind Dir Wind Speed Gust Speed Precip Events Conditions
12:15 AM 25.3 °F 16.7 °F 23.9 °F 94% 30.25 in 2.5 mi North 8.1 mph - 0.01 in Snow Light Snow
12:35 AM 25.3 °F 16.0 °F 23.9 °F 94% 30.26 in 2.0 mi NNW 9.2 mph - 0.02 in Snow Light Snow
1:00 AM 25.3 °F 16.7 °F 23.9 °F 94% 30.25 in 3.0 mi North 8.1 mph - N/A Snow Light Snow
1:15 AM 25.2 °F 16.5 °F 23.7 °F 94% 30.25 in 1.8 mi NNW 8.1 mph - 0.01 in Snow Light Snow
1:35 AM 25.0 °F 19.3 °F 23.7 °F 95% 30.25 in 3.0 mi North 4.6 mph - 0.01 in Snow Light Snow
1:55 AM 25.0 °F 17.1 °F 23.9 °F 96% 30.26 in 1.8 mi NNW 6.9 mph - 0.02 in Snow Light Snow
2:15 AM 25.2 °F 18.3 °F 23.9 °F 95% 30.28 in 2.0 mi NNW 5.8 mph - N/A Snow Light Snow
2:35 AM 25.2 °F 17.3 °F 24.1 °F 96% 30.29 in 2.0 mi NNW 6.9 mph - N/A Snow Light Snow
2:55 AM 25.3 °F 16.0 °F 23.7 °F 94% 30.29 in 3.0 mi North 9.2 mph - N/A Snow Light Snow
3:15 AM 25.2 °F 17.3 °F 23.5 °F 94% 30.27 in 5.0 mi North 6.9 mph - N/A Snow Light Snow
3:35 AM 24.8 °F 15.3 °F 22.6 °F 91% 30.25 in 5.0 mi North 9.2 mph - N/A Snow Light Snow
3:55 AM 25.2 °F 18.3 °F 22.5 °F 89% 30.26 in 10.0 mi North 5.8 mph - N/A   Overcast
4:15 AM 25.3 °F 16.7 °F 22.1 °F 87% 30.25 in 10.0 mi North 8.1 mph - N/A   Overcast
4:35 AM 25.2 °F 15.7 °F 21.2 °F 85% 30.25 in 3.0 mi North 9.2 mph - N/A Snow Light Snow
4:55 AM 25.0 °F 15.5 °F 21.2 °F 86% 30.27 in 5.0 mi North 9.2 mph - N/A Snow Light Snow
5:15 AM 25.0 °F 17.1 °F 21.6 °F 87% 30.27 in 5.0 mi North 6.9 mph - N/A Snow Light Snow
5:35 AM 25.2 °F 16.5 °F 21.2 °F 85% 30.28 in 7.0 mi North 8.1 mph - N/A Snow Light Snow
5:55 AM 24.8 °F 16.1 °F 21.0 °F 86% 30.30 in 4.0 mi North 8.1 mph - N/A Snow Light Snow
6:15 AM 24.4 °F 14.9 °F 22.1 °F 91% 30.31 in 2.5 mi North 9.2 mph - N/A Snow Light Snow
6:35 AM 23.9 °F 15.0 °F 22.3 °F 94% 30.30 in 2.5 mi North 8.1 mph - N/A Snow Light Snow
6:55 AM 24.1 °F 15.2 °F 22.5 °F 94% 30.31 in 5.0 mi North 8.1 mph - N/A Snow Light Snow
7:15 AM 24.3 °F 15.4 °F 22.1 °F 91% 30.31 in 2.0 mi North 8.1 mph - N/A Snow Light Snow
7:35 AM 24.8 °F 16.9 °F 20.8 °F 85% 30.31 in 5.0 mi North 6.9 mph - N/A Snow Light Snow
7:55 AM 25.2 °F 16.5 °F 20.3 °F 82% 30.31 in 10.0 mi North 8.1 mph - N/A   Overcast
8:15 AM 25.3 °F 16.0 °F 20.3 °F 81% 30.32 in 10.0 mi North 9.2 mph - N/A   Overcast
8:35 AM 25.5 °F 15.5 °F 20.1 °F 80% 30.34 in 10.0 mi North 10.4 mph - N/A Snow Light Snow
8:55 AM 25.5 °F 16.2 °F 19.9 °F 79% 30.34 in 7.0 mi North 9.2 mph - N/A Snow Light Snow
9:15 AM 25.5 °F 15.5 °F 20.1 °F 80% 30.35 in 5.0 mi North 10.4 mph - N/A Snow Light Snow
9:35 AM 25.3 °F 16.0 °F 20.1 °F 81% 30.34 in 7.0 mi North 9.2 mph - N/A   Overcast
9:55 AM 25.2 °F 16.5 °F 20.8 °F 84% 30.36 in 3.0 mi North 8.1 mph - N/A Snow Light Snow
10:15 AM 25.2 °F 17.3 °F 21.2 °F 85% 30.34 in 4.0 mi North 6.9 mph - N/A Snow Light Snow
10:35 AM 25.2 °F 15.1 °F 21.4 °F 86% 30.34 in 1.5 mi NNW 10.4 mph - N/A Snow Light Snow
10:55 AM 24.8 °F 14.6 °F 22.3 °F 90% 30.33 in 1.0 mi North 10.4 mph - N/A Snow Light Snow
11:15 AM 25.2 °F 14.4 °F 22.1 °F 88% 30.33 in 1.5 mi North 11.5 mph - N/A Snow Light Snow
11:35 AM 25.2 °F 13.9 °F 22.1 °F 88% 30.32 in 1.8 mi North 12.7 mph - N/A Snow Light Snow
11:55 AM 25.5 °F 13.8 °F 21.9 °F 86% 30.33 in 2.5 mi NNW 13.8 mph - N/A Snow Light Snow
12:15 PM 25.3 °F 14.7 °F 23.0 °F 91% 30.32 in 1.0 mi NNW 11.5 mph 17.3 mph N/A Snow Light Snow
12:35 PM 25.3 °F 16.0 °F 23.0 °F 91% 30.31 in 1.0 mi North 9.2 mph - N/A Snow Light Snow
12:55 PM 25.3 °F 14.7 °F 23.7 °F 94% 30.31 in 0.5 mi NNW 11.5 mph - N/A Snow Light Snow
1:15 PM 25.3 °F 13.6 °F 23.7 °F 94% 30.32 in 0.8 mi NNW 13.8 mph - N/A Snow Light Snow
1:35 PM 25.3 °F 14.7 °F 23.7 °F 94% 30.29 in 1.0 mi North 11.5 mph - N/A Snow Light Snow
1:55 PM 25.7 °F 15.7 °F 23.9 °F 93% 30.31 in 1.2 mi NNW 10.4 mph - N/A Snow Light Snow
2:15 PM 25.7 °F 15.7 °F 23.7 °F 92% 30.32 in 1.8 mi NNW 10.4 mph - N/A Snow Light Snow
2:35 PM 25.7 °F 15.7 °F 23.7 °F 92% 30.33 in 2.5 mi North 10.4 mph - N/A Snow Light Snow
2:55 PM 25.5 °F 15.5 °F 23.5 °F 92% 30.32 in 1.2 mi North 10.4 mph - N/A Snow Light Snow
3:15 PM 25.3 °F 14.7 °F 23.5 °F 93% 30.33 in 1.0 mi North 11.5 mph - N/A Snow Light Snow
3:35 PM 25.2 °F 16.5 °F 23.5 °F 94% 30.35 in 2.0 mi North 8.1 mph - N/A Snow Light Snow
3:55 PM 24.8 °F 15.3 °F 23.4 °F 94% 30.36 in 1.2 mi NNW 9.2 mph - N/A Snow Light Snow
4:15 PM 24.8 °F 16.1 °F 23.0 °F 93% 30.36 in 1.2 mi North 8.1 mph - N/A Snow Light Snow
4:35 PM 24.4 °F 14.2 °F 23.0 °F 94% 30.37 in 0.8 mi NNW 10.4 mph - N/A Snow Light Snow
4:55 PM 24.3 °F 13.3 °F 22.6 °F 94% 30.39 in 3.0 mi NNW 11.5 mph - N/A Snow Light Snow
5:15 PM 24.3 °F 13.9 °F 22.5 °F 93% 30.40 in 4.0 mi NNW 10.4 mph - N/A Snow Light Snow
5:35 PM 23.9 °F 12.3 °F 21.6 °F 91% 30.39 in 4.0 mi North 12.7 mph 18.4 mph N/A Snow Light Snow
5:55 PM 23.9 °F 14.2 °F 21.0 °F 89% 30.39 in 5.0 mi North 9.2 mph 16.1 mph N/A Snow Light Snow
6:15 PM 23.9 °F 13.5 °F 20.1 °F 85% 30.40 in 10.0 mi North 10.4 mph - N/A   Overcast
6:35 PM 23.9 °F 14.2 °F 19.4 °F 83% 30.41 in 10.0 mi North 9.2 mph - N/A   Overcast
6:55 PM 24.3 °F 15.4 °F 18.7 °F 79% 30.43 in 10.0 mi NNW 8.1 mph - N/A   Overcast
7:15 PM 24.3 °F 13.3 °F 17.8 °F 76% 30.42 in 10.0 mi North 11.5 mph - N/A   Overcast
7:35 PM 24.3 °F 13.9 °F 17.6 °F 76% 30.44 in 10.0 mi North 10.4 mph - N/A   Overcast
7:55 PM 24.3 °F 13.9 °F 17.6 °F 76% 30.44 in 10.0 mi North 10.4 mph - N/A   Overcast
8:15 PM 23.9 °F 15.8 °F 17.6 °F 77% 30.46 in 10.0 mi NNW 6.9 mph - N/A   Overcast
8:35 PM 23.7 °F 16.6 °F 17.8 °F 78% 30.47 in 10.0 mi NNW 5.8 mph - N/A   Overcast
8:55 PM 23.4 °F 13.5 °F 17.4 °F 78% 30.48 in 10.0 mi NW 9.2 mph - N/A   Overcast
9:15 PM 23.0 °F 13.1 °F 16.7 °F 77% 30.48 in 10.0 mi NNW 9.2 mph - N/A   Overcast
9:35 PM 22.8 °F 13.6 °F 16.5 °F 77% 30.49 in 10.0 mi NNW 8.1 mph - N/A   Overcast
9:55 PM 22.8 °F 13.6 °F 16.5 °F 77% 30.50 in 10.0 mi North 8.1 mph - N/A   Overcast
10:15 PM 22.8 °F 12.2 °F 15.8 °F 74% 30.50 in 10.0 mi NNW 10.4 mph - N/A   Overcast
10:35 PM 22.1 °F 12.0 °F 15.6 °F 76% 30.51 in 10.0 mi NNW 9.2 mph - N/A   Overcast
10:55 PM 21.7 °F 11.5 °F 15.1 °F 76% 30.52 in 10.0 mi NNW 9.2 mph - N/A   Overcast
11:15 PM 21.2 °F 9.5 °F 14.7 °F 76% 30.53 in 10.0 mi NNW 11.5 mph - N/A   Overcast
11:35 PM 20.3 °F 9.8 °F 14.0 °F 77% 30.53 in 10.0 mi NNW 9.2 mph - N/A   Overcast
11:55 PM 19.8 °F 9.1 °F 13.5 °F 77% 30.54 in 10.0 mi NNW 9.2 mph - N/A   Overcast